Weather in Saltillo

Mexico     25°25′50″N   100°59′48″W
temp.,
°C
wind,
m/s
gust,
m/s
humid.,
%
clouds,
%
prec.,
mm/h
press.,
hPa
HPBL,
m
16 may, sun
sun1601:00+18s126525 4.2 1015159
04:00+18s336071 0.2 1013123
07:00+18s336318 0.2 101485
10:00+22sw23485 0.0 1015626
13:00+26nw33330 0.0 10121979
16:00+29nw652368 0.1 10093395
19:00+24e234397 0.8 1010866
22:00+23sse22470 0.6 101170
17 may, mon
mon1701:00+22sse22495 0.6 101252
04:00+20sse33510 0.0 101170
07:00+19sse33490 0.0 101241
10:00+25sw22310 0.0 1012519
13:00+29nw34160 0.0 10102914
16:00+31nnw561388 0.0 10064219
19:00+30n561895 0.0 10053019
22:00+26ese11330 0.0 100789
18 may, tue
tue1801:00+24sse7133641 0.0 1009589
04:00+23s344096 0.0 1008155
07:00+21s33411 0.0 101083
10:00+25wsw44121 0.0 10111174
13:00+28w4590 0.0 10092342
16:00+30wnw4790 0.0 10054068
19:00+30wnw36102 0.0 10033862
22:00+24ene454381 0.0 1005365
19 may, wed
wed1901:00+23sse364136 0.0 1006363
04:00+21sse23520 0.0 1006348
07:00+20ssw225263 0.0 1008111
10:00+23sw34250 0.0 10091238
13:00+27w56140 0.0 10072257
16:00+29nw66110 0.0 10053314
19:00+28nw77816 0.0 10053581
22:00+18ese2264100 0.0 1010247
20 may, thu
thu2001:00+18ne2272100 0.0 1011242
04:00+19se005936 0.0 1010136
07:00+17ene11600 0.0 101160
10:00+23nne12310 0.0 1012685
13:00+27n64230 0.0 10112251
16:00+28nne86210 0.0 10082642
19:00+26nne76280 0.0 10081491
22:00+22ne33530 0.0 1011403